Regional Weather Roundup
Issued by NWS Midland/Odessa, TX

Skip options and go directly to product.
Home | Oldest Version | Next Version | Current Version | All | Text Only | Save Text | Print | Product List | Glossary On

Skip product version selection by date and time.   
738
ASUS44 KMAF 240410
RWRMAF
MIDLAND AREA WEATHER ROUNDUP
NATIONAL WEATHER SERVICE MIDLAND TX
1100 PM CDT THU JUN 23 2016

...IN SOUTHWEST TEXAS AND SOUTHEAST NEW MEXICO...

CITY           SKY/WX    TMP DP  RH WIND       PRES   REMARKS
ALPINE         CLEAR     79  49  34 SE15G23   30.15R
ANDREWS        FAIR      82  54  38 SE7       30.06R
ARTESIA        CLEAR     88  54  31 SE18      30.01R
BIG SPRING     CLEAR     78  58  50 SE7       30.05R
CARLSBAD       CLOUDY    88  54  31 SE16G25   29.99R
DRYDEN           N/A     85  59  41 E17G25    29.98R
FORT STOCKTON  CLEAR     83  57  41 SE18G24   30.02R
GUAD PASS      CLOUDY    82  50  32 E26       30.15R
HOBBS          CLEAR     81  50  34 SE9       30.07R
MARFA          CLEAR    N/A N/A N/A SE14      30.14R
MIDLAND AIRPK  CLEAR     86  56  35 SE12G22   30.04R
MIDLAND INTL   CLEAR     85  57  38 SE15      30.03R
ODESSA         CLEAR     85  56  37 SE14      30.04R
PECOS          CLEAR     87  56  34 E18       29.97R
PRESIDIO       FAIR      92  52  25 NE20G25   29.92R
SEMINOLE       CLEAR     81  51  35 SE7       30.08R
SNYDER           N/A     78  60  53 SE8       30.04R
WINK           CLEAR     86  56  35 SE17      29.99R
$$
...OTHER STATIONS IN TEXAS...

CITY           SKY/WX    TMP DP  RH WIND       PRES   REMARKS
ABILENE        CLEAR     81  64  56 SE10      30.02R
AMARILLO       PTCLDY    81  58  45 SE13      30.06R
AUSTIN         PTCLDY    80  71  74 S8        30.02R
BROWNSVILLE    CLEAR     82  75  79 SE10      30.01R
CORPUS CHRISTI CLOUDY    82  75  79 SE9       30.00R
DALLAS FTW     CLEAR     86  68  54 S9        29.98R
DEL RIO        PTCLDY    87  64  46 E14G24    29.94R
EL PASO        MOCLDY    97  45  16 NW15G24   29.96R THUNDER
HOUSTON INT    MOCLDY    81  72  74 S3        30.03S
LUBBOCK        PTCLDY    81  59  47 SE15      30.06R
SAN ANGELO     CLEAR     80  61  52 SE9       30.01R
SAN ANTONIO    PTCLDY    79  70  74 SE15      30.04R
WACO           CLEAR     84  69  60 S9        30.00R
WICHITA FALLS  NOT AVBL
$$
...OTHER LOCATIONS IN NEW MEXICO...

CITY           SKY/WX    TMP DP  RH WIND       PRES   REMARKS
ALAMAGORDO     CLOUDY    84  48  28 NW10      30.04R
ALBUQUERQUE    CLOUDY    78  49  35 E15       30.18S
CANNON AFB     PTCLDY    80  55  42 SE8       30.11R
CLOVIS         CLOUDY    81  54  39 S12       30.11R
HOLLOMAN AFB   CLOUDY    85  48  27 NW12      30.01R
ROSWELL        CLOUDY    90  50  25 N14       30.06R
RUIDOSO          N/A     68  48  49 E8        30.33R
SANTA FE       CLOUDY    70  51  51 E15       30.31R
TRUTH OR CONSE MOCLDY    80  50  34 CALM      30.12R
TUCUMCARI      LGT RAIN  72  63  73 S14       30.08F
$$

USA.gov is the U.S. government's official web portal to all federal, state and local government web resources and services.